AF6GL Weather Reports


Display with metric or nautical units.
time (UTC)temp
F
wind
direction
speed
MPH
gust
MPH
rain 1hr
in
rain 24hr
in
rain mn
in
humidity
%
barometer
mb
20181213184118 67 68 5.0 9.0 0.00 0.01 0.01 42 1022.0
20181213183119 66 61 4.0 8.0 0.00 0.01 0.01 44 1022.1
20181213182119 65 53 3.0 7.0 0.00 0.01 0.01 46 1022.2
20181213181118 64 48 3.0 7.0 0.00 0.01 0.01 49 1022.3
20181213180119 62 55 4.0 7.0 0.00 0.01 0.01 52 1022.3
20181213175121 61 46 4.0 6.0 0.00 0.01 0.01 57 1022.4
20181213174118 59 77 4.0 7.0 0.00 0.01 0.01 61 1022.5
20181213173114 58 45 3.0 7.0 0.00 0.01 0.01 64 1022.5
20181213172114 57 54 2.0 6.0 0.00 0.01 0.01 68 1022.5
20181213171114 55 93 2.0 5.0 0.00 0.01 0.01 71 1022.4
20181213170114 54 53 1.0 4.0 0.00 0.01 0.01 75 1022.4
20181213165114 53 65 2.0 5.0 0.00 0.01 0.01 76 1022.2
20181213164114 51 45 1.0 4.0 0.00 0.01 0.01 78 1022.2
20181213163115 50 89 1.0 4.0 0.00 0.01 0.01 80 1022.2
20181213162115 49 66 1.0 3.0 0.00 0.01 0.01 81 1022.2
20181213161113 48 46 1.0 3.0 0.00 0.01 0.01 82 1022.2
20181213160119 47 121 1.0 2.0 0.00 0.01 0.01 83 1022.2
20181213155115 47 66 2.0 6.0 0.00 0.01 0.01 84 1022.3
20181213154114 46 57 3.0 6.0 0.00 0.01 0.01 85 1022.4
20181213153113 45 61 3.0 7.0 0.00 0.01 0.01 86 1022.5
20181213152116 44 68 2.0 5.0 0.00 0.01 0.01 87 1022.2
20181213151114 44 91 3.0 7.0 0.00 0.01 0.01 88 1022.1
20181213150113 43 84 2.0 7.0 0.00 0.01 0.01 89 1022.0
20181213145137 43 82 1.0 4.0 0.00 0.01 0.01 90 1021.9
20181213144114 43 71 2.0 6.0 0.00 0.01 0.01 89 1021.8
20181213143114 43 105 3.0 6.0 0.00 0.01 0.01 90 1021.8
20181213142113 44 122 3.0 6.0 0.00 0.01 0.01 89 1021.8
20181213141114 44 60 3.0 7.0 0.00 0.01 0.01 89 1021.7
20181213140115 44 64 2.0 6.0 0.00 0.01 0.01 90 1021.6
20181213135115 44 62 2.0 7.0 0.00 0.01 0.01 91 1021.6
20181213134124 44 57 3.0 6.0 0.00 0.01 0.01 92 1021.5
20181213133114 44 79 2.0 6.0 0.00 0.01 0.01 93 1021.4
20181213132114 44 59 1.0 4.0 0.00 0.01 0.01 93 1021.3
20181213131118 44 59 1.0 6.0 0.00 0.01 0.01 93 1021.3
20181213130113 44 56 2.0 6.0 0.00 0.01 0.01 94 1021.1
20181213125111 44 83 3.0 8.0 0.00 0.01 0.01 94 1021.0
20181213124112 44 15 2.0 5.0 0.00 0.01 0.01 95 1020.9
20181213123111 44 70 2.0 5.0 0.00 0.01 0.01 95 1020.9
20181213122111 44 44 1.0 5.0 0.00 0.01 0.01 95 1020.9
20181213121110 44 42 1.0 5.0 0.00 0.01 0.01 95 1020.9
20181213120110 44 25 1.0 4.0 0.00 0.01 0.01 96 1020.8
20181213115110 44 44 1.0 4.0 0.00 0.01 0.01 96 1020.7
20181213114105 44 75 1.0 4.0 0.00 0.01 0.01 96 1020.6
20181213113105 44 75 2.0 5.0 0.00 0.01 0.01 96 1020.5
20181213112105 44 34 2.0 4.0 0.00 0.01 0.01 96 1020.6
20181213111105 44 68 2.0 4.0 0.00 0.01 0.01 96 1020.7
20181213110107 44 58 0.0 0.0 0.00 0.01 0.01 96 1020.6
20181213105112 45 53 0.0 1.0 0.00 0.01 0.01 96 1020.5
20181213104108 45 95 2.0 5.0 0.00 0.01 0.01 96 1020.6
20181213103106 45 62 1.0 3.0 0.00 0.01 0.01 96 1020.6
20181213102106 45 115 0.0 3.0 0.00 0.01 0.01 96 1020.6
20181213101110 45 96 0.0 2.0 0.00 0.01 0.01 96 1020.7
20181213100106 45 104 2.0 4.0 0.00 0.01 0.01 96 1020.7
20181213095107 46 64 0.0 2.0 0.01 0.02 0.01 96 1020.7
20181213094106 46 18 0.0 2.0 0.01 0.02 0.01 96 1020.7
20181213093105 46 108 1.0 3.0 0.01 0.02 0.01 96 1020.7
20181213092105 46 70 1.0 3.0 0.01 0.02 0.01 96 1020.6
20181213091104 46 67 1.0 3.0 0.01 0.02 0.01 96 1020.5
20181213090106 46 53 0.0 2.0 0.01 0.02 0.01 96 1020.6
20181213085101 47 44 2.0 4.0 0.00 0.01 0.00 95 1020.6
20181213084101 47 58 1.0 4.0 0.00 0.01 0.00 96 1020.5
20181213083101 47 30 0.0 2.0 0.00 0.01 0.00 96 1020.5
20181213082102 47 333 0.0 3.0 0.00 0.01 0.00 95 1020.7
20181213081101 47 69 1.0 4.0 0.00 0.01 0.00 96 1020.6
20181213080101 47 80 2.0 5.0 0.00 0.01 0.00 95 1020.8
20181213075103 48 61 1.0 4.0 0.00 0.01 0.01 95 1020.7
20181213074106 48 75 1.0 5.0 0.00 0.01 0.01 95 1020.5
20181213073102 48 77 0.0 0.0 0.00 0.01 0.01 95 1020.4
20181213072102 48 83 0.0 2.0 0.00 0.01 0.01 95 1020.4
20181213071100 49 75 1.0 3.0 0.00 0.01 0.01 95 1020.4
20181213070102 49 62 1.0 4.0 0.00 0.01 0.01 95 1020.4
20181213065102 49 44 0.0 3.0 0.00 0.01 0.01 95 1020.4
20181213064102 49 76 0.0 0.0 0.00 0.01 0.01 95 1020.3
20181213063100 49 49 0.0 0.0 0.00 0.01 0.01 95 1020.4
20181213062102 49 84 0.0 0.0 0.00 0.01 0.01 95 1020.5
20181213061102 50 62 0.0 1.0 0.00 0.01 0.01 95 1020.5
20181213060108 50 70 0.0 1.0 0.00 0.01 0.01 95 1020.6
20181213055100 50 81 0.0 3.0 0.00 0.01 0.01 94 1020.7
20181213054103 50 30 0.0 2.0 0.00 0.01 0.01 94 1020.8
20181213053107 51 69 1.0 4.0 0.00 0.01 0.01 94 1020.9
20181213052102 51 56 1.0 4.0 0.00 0.01 0.01 94 1020.8
20181213051105 51 89 0.0 0.0 0.00 0.01 0.01 94 1020.8
20181213050102 51 119 0.0 0.0 0.00 0.01 0.01 93 1020.9
20181213045109 51 98 0.0 2.0 0.00 0.01 0.01 94 1020.9
20181213044103 51 79 1.0 3.0 0.00 0.01 0.01 94 1020.9
20181213043103 52 78 0.0 2.0 0.00 0.01 0.01 94 1020.8
20181213042101 51 122 0.0 1.0 0.00 0.01 0.01 93 1020.5
20181213041103 52 44 0.0 0.0 0.00 0.01 0.01 93 1020.3
20181213040106 53 44 0.0 0.0 0.00 0.01 0.01 93 1020.1
20181213035106 53 128 0.0 0.0 0.00 0.01 0.01 94 1020.0
20181213034059 53 117 0.0 2.0 0.00 0.01 0.01 93 1020.1
20181213033105 52 134 0.0 2.0 0.00 0.01 0.01 92 1020.3
20181213032100 53 111 0.0 0.0 0.00 0.01 0.01 92 1020.4
20181213031057 53 113 0.0 0.0 0.00 0.01 0.01 92 1020.3
20181213030056 54 113 0.0 0.0 0.00 0.01 0.01 92 1020.1
20181213025103 54 133 0.0 0.0 0.00 0.01 0.01 91 1019.9
20181213024056 54 137 0.0 0.0 0.00 0.01 0.01 91 1019.7
20181213023055 55 109 0.0 0.0 0.00 0.01 0.01 90 1019.8
20181213022057 55 103 0.0 0.0 0.00 0.01 0.01 90 1019.6
20181213021055 55 18 0.0 0.0 0.00 0.01 0.01 90 1019.4
20181213020110 56 135 0.0 0.0 0.00 0.01 0.01 89 1019.0
20181213015056 56 128 0.0 0.0 0.00 0.01 0.01 88 1018.9
20181213014053 57 114 0.0 0.0 0.00 0.01 0.01 87 1018.9
20181213013054 58 136 0.0 1.0 0.00 0.01 0.01 85 1018.8
20181213012054 59 210 0.0 0.0 0.00 0.01 0.01 84 1018.8
20181213011053 59 210 0.0 1.0 0.00 0.01 0.01 84 1018.8
20181213010104 60 217 0.0 1.0 0.00 0.01 0.01 83 1018.6
20181213005053 60 180 0.0 1.0 0.00 0.01 0.01 82 1018.3
20181213004054 61 248 0.0 3.0 0.00 0.01 0.01 81 1018.4
20181213003053 62 264 0.0 3.0 0.00 0.01 0.01 80 1018.3
20181213002054 63 241 1.0 4.0 0.00 0.01 0.01 79 1018.3
20181213001054 63 236 2.0 6.0 0.00 0.01 0.01 78 1018.2
20181213000057 64 285 2.0 5.0 0.00 0.01 0.01 77 1018.0
20181212235052 64 281 2.0 6.0 0.00 0.01 0.01 77 1018.0
20181212234056 65 245 1.0 4.0 0.00 0.01 0.01 76 1017.9
20181212233056 65 252 2.0 6.0 0.00 0.01 0.01 76 1017.9
20181212232053 64 252 2.0 6.0 0.00 0.01 0.01 76 1017.8
20181212231053 64 235 3.0 7.0 0.00 0.01 0.01 75 1017.9
20181212230050 65 262 2.0 7.0 0.00 0.01 0.01 74 1017.9
20181212225053 65 220 2.0 7.0 0.00 0.01 0.01 73 1017.8
20181212224050 65 288 3.0 7.0 0.00 0.01 0.01 74 1017.6
20181212223051 65 198 3.0 8.0 0.00 0.01 0.01 74 1017.7
20181212222052 65 218 3.0 8.0 0.00 0.01 0.01 74 1017.7
20181212221050 65 253 3.0 8.0 0.00 0.01 0.01 73 1017.7
20181212220053 64 278 5.0 9.0 0.00 0.01 0.01 74 1017.8
20181212215051 64 311 4.0 10.0 0.00 0.01 0.01 74 1017.8
20181212214051 64 256 4.0 9.0 0.00 0.01 0.01 74 1017.6
20181212213050 65 248 3.0 6.0 0.00 0.01 0.01 75 1017.7
20181212212051 65 262 3.0 8.0 0.00 0.01 0.01 73 1017.7
20181212211051 65 261 2.0 6.0 0.00 0.01 0.01 74 1017.6
20181212210054 65 306 3.0 8.0 0.00 0.01 0.01 74 1017.6
20181212205054 65 143 4.0 10.0 0.00 0.01 0.01 71 1017.8
20181212204049 66 288 2.0 6.0 0.00 0.01 0.01 66 1017.7
20181212203049 65 285 3.0 6.0 0.00 0.01 0.01 67 1017.7
20181212202049 65 247 2.0 6.0 0.00 0.01 0.01 67 1017.6
20181212201048 65 242 3.0 7.0 0.00 0.01 0.01 69 1017.8
20181212200055 64 283 2.0 7.0 0.00 0.01 0.01 69 1018.0
20181212195046 64 157 3.0 8.0 0.00 0.01 0.01 71 1018.1
20181212194047 63 252 2.0 5.0 0.00 0.01 0.01 73 1018.1
20181212193047 63 240 1.0 3.0 0.00 0.01 0.01 74 1018.3
20181212192045 62 271 3.0 6.0 0.00 0.01 0.01 75 1018.6
20181212191046 63 184 2.0 7.0 0.00 0.01 0.01 73 1018.7
20181212190045 62 248 0.0 3.0 0.00 0.01 0.01 74 1018.8
20181212185047 61 238 0.0 2.0 0.00 0.01 0.01 77 1018.7